User: anonymous   Login
Location: Unspecified
(0.0000°N, 0.0000°E)
Time: 23:09:33
(UTC+02:00)
Language:

H-2A R/B - Orbit

View from above orbital plane
View from above orbital plane
View from above satellite
View from above satellite

Ground track
Ground track

The orbit data is extracted from the following two-line orbital elements,

1 26899U 01038B   14296.27214274  .00002067  00000-0  70368-3 0   642
2 26899 028.0383 096.0739 7150079 271.1793 343.6932 02.43970583112659
Epoch (UTC): 23 October 2014 06:31:53
Eccentricity: 0.7150079
inclination: 28.0383°
perigee height: 264 km
apogee height: 33595 km
right ascension of ascending node: 96.0739°
argument of perigee: 271.1793°
revolutions per day: 2.43970583
mean anomaly at epoch: 343.6932°
orbit number at epoch: 11265

The dashed part of the orbit path shows where the satellite is in the earth's shadow,  

DLR